Weather in Kyslivka

Ukraine / Kharkiv Region     49°38′31″N   37°54′03″E
temp.,
°C
wind,
m/s
gust,
m/s
humid.,
%
clouds,
%
prec.,
mm/h
press.,
hPa
HPBL,
m
13 april, tue
tue1300:00+12se117789 0.0 102210
03:00+10ese1185100 0.0 102211
06:00+9e368560 0.0 1022100
09:00+15ese61056100 0.0 1022504
12:00+18se8114668 0.0 10211422
15:00+16se796166 0.0 10211256
18:00+14sse697546 0.1 1021873
21:00+11ssw368898 0.1 1022290
14 april, wed
wed1400:00+11sse1183100 0.0 102113
03:00+11ene228970 0.5 102053
06:00+9ne2293100 0.0 101942
09:00+11s1284100 0.6 1019231
12:00+15nnw2166100 0.6 1017260
15:00+16sse2451100 0.9 10161079
18:00+14w4667100 0.5 1016227
21:00+12nnw2380100 0.5 101689
15 april, thu
thu1500:00+10nw2286100 0.1 101532
03:00+9wsw228866 0.3 101524
06:00+7sw238976 0.0 101536
09:00+12sw346778 0.0 1015445
12:00+15ssw565083 0.0 10151275
15:00+16s464932 0.0 10151412
18:00+14ssw5760100 0.2 1014461
21:00+12ssw4107899 0.8 1015479
16 april, fri
fri1600:00+11sse378287 0.4 1014428
03:00+8s34957 0.4 1015101
06:00+7s3692100 0.0 1015150
09:00+10ssw457538 0.0 1016704
12:00+13ssw565370 0.0 10161483
15:00+13ssw4646100 0.0 10161485
18:00+12wsw445194 0.0 1017914
21:00+8wnw34645 0.0 101764
17 april, sat
sat1700:00+7nnw1167100 0.0 101810
03:00+8wnw1166100 0.0 101824
06:00+6w227396 0.0 101824
09:00+10w346297 0.0 1018556
12:00+12wsw4550100 0.1 10191846
15:00+13w234199 0.1 10191925
18:00+14w234191 0.0 1019598
21:00+10wnw356171 0.0 1021117